Weather History for KGLY - January, 2013

Change the Weather History Date:

Wednesday, January 9, 2013

  Actual Average (KDMO) Record (KDMO)
Temperature  
Mean Temperature 44 °F 31 °F  
Max Temperature 55 °F 40 °F 74 °F (1939)
Min Temperature 32 °F 23 °F -20 °F (1979)
Degree Days  
Heating Degree Days 22 34  
Month to date heating degree days 304  
Since 1 July heating degree days 2085  
Cooling Degree Days 0 0  
Month to date cooling degree days 0  
Year to date cooling degree days 0  
Moisture  
Dew Point 35 °F    
Average Humidity 81    
Maximum Humidity 100    
Minimum Humidity 47    
Precipitation  
Precipitation 0.00 in 0.04 in 0.62 in (1946)
Month to date precipitation 0.44  
Year to date precipitation 0.44  
Sea Level Pressure  
Sea Level Pressure 30.35 in    
Wind  
Wind Speed 2 mph (ENE)    
Max Wind Speed 8 mph    
Max Gust Speed -    
Visibility 6 miles    
Events Fog    
T = Trace of Precipitation, MM = Missing Value Source: NWS Daily Summary

Daily Weather History Graph

Daily Weather History Graph

Search for Another Location

Airport or City:

Trip Planner

Search our weather history database for the weather conditions in past years. The results will help you decide how hot, cold, wet, or windy it might be!

Date:

Astronomy

Jan. 09, 2013 Rise Set
Actual Time 7:31 AM CST 5:12 PM CST
Civil Twilight 7:02 AM CST 5:41 PM CST
Nautical Twilight 6:29 AM CST 6:14 PM CST
Astronomical Twilight 5:57 AM CST 6:46 PM CST
Moon 5:11 AM CST (1/9) 3:14 PM CST (1/9)
Length of Visible Light 10h 39m
Length of Day
9h 40m
Waning Crescent, 6% of the Moon is Illuminated
Jan 9
Waning Crescent
Jan 11
New
Jan 18
First Quarter
Jan 26
Full
Feb 3
Last Quarter

Hourly Weather History & Observations

Time (CST) Temp. Windchill Dew Point Humidity Pressure Visibility Wind Dir Wind Speed Gust Speed Precip Events Conditions
12:15 AM 41.0 °F - 37.4 °F 87% 30.21 in 9.0 mi Calm Calm - N/A   Scattered Clouds
12:35 AM 42.8 °F 38.6 °F 39.2 °F 87% 30.22 in 9.0 mi SW 6.9 mph - N/A   Scattered Clouds
12:55 AM 42.8 °F 38.6 °F 41.0 °F 93% 30.23 in 8.0 mi SW 6.9 mph - N/A   Clear
1:15 AM 41.0 °F - 39.2 °F 93% 30.23 in 5.0 mi Calm Calm - N/A   Clear
1:35 AM 39.2 °F - 39.2 °F 100% 30.25 in 5.0 mi Calm Calm - N/A   Clear
1:55 AM 39.2 °F 34.2 °F 39.2 °F 100% 30.25 in 3.0 mi SW 6.9 mph - N/A   Mostly Cloudy
2:15 AM 41.0 °F 37.1 °F 41.0 °F 100% 30.26 in 0.2 mi SSW 5.8 mph - N/A Fog Fog
2:35 AM 39.2 °F - 39.2 °F 100% 30.26 in 0.2 mi Calm Calm - N/A Fog Fog
2:55 AM 39.2 °F - 39.2 °F 100% 30.26 in 0.2 mi Calm Calm - N/A Fog Fog
3:15 AM 37.4 °F - 37.4 °F 100% 30.27 in 0.2 mi Calm Calm - N/A Fog Fog
3:35 AM 37.4 °F - 37.4 °F 100% 30.28 in 0.2 mi Calm Calm - N/A Fog Fog
3:55 AM 37.4 °F - 37.4 °F 100% 30.27 in 0.2 mi Calm Calm - N/A Fog Fog
4:15 AM 35.6 °F - 35.6 °F 100% 30.27 in 0.2 mi Calm Calm - N/A Fog Fog
4:35 AM 35.6 °F - 35.6 °F 100% 30.28 in 0.2 mi Calm Calm - N/A Fog Fog
4:55 AM 35.6 °F - 35.6 °F 100% 30.29 in 0.2 mi Calm Calm - N/A Fog Fog
5:15 AM 33.8 °F - 33.8 °F 100% 30.29 in 0.2 mi Calm Calm - N/A Fog Fog
5:35 AM 33.8 °F - 33.8 °F 100% 30.30 in 0.2 mi Calm Calm - N/A Fog Fog
5:55 AM 33.8 °F - 33.8 °F 100% 30.31 in 0.2 mi Calm Calm - N/A   Overcast
6:15 AM 32.0 °F - 32.0 °F 100% 30.32 in 0.2 mi Calm Calm - N/A Fog Fog
6:35 AM 32.0 °F - 32.0 °F 100% 30.32 in 0.2 mi Calm Calm - N/A Fog Fog
6:55 AM 32.0 °F - 32.0 °F 100% 30.33 in 0.2 mi Calm Calm - N/A Fog Fog
7:15 AM 32.0 °F - 32.0 °F 100% 30.35 in 0.2 mi Calm Calm - N/A Fog Light Freezing Fog
7:35 AM 32.0 °F - 32.0 °F 100% 30.36 in 0.2 mi Calm Calm - N/A Fog Light Freezing Fog
7:55 AM 32.0 °F - 32.0 °F 100% 30.37 in 0.2 mi Calm Calm - N/A Fog Light Freezing Fog
8:15 AM 32.0 °F - 32.0 °F 100% 30.38 in 0.2 mi Calm Calm - N/A Fog Light Freezing Fog
8:35 AM 32.0 °F - 32.0 °F 100% 30.40 in 1.8 mi Calm Calm - N/A   Clear
8:55 AM 32.0 °F - 32.0 °F 100% 30.41 in 1.5 mi Calm Calm - N/A   Scattered Clouds
9:15 AM 32.0 °F - 32.0 °F 100% 30.41 in 2.0 mi Calm Calm - N/A   Mostly Cloudy
9:35 AM 33.8 °F - 33.8 °F 100% 30.41 in 3.0 mi Calm Calm - N/A   Partly Cloudy
9:55 AM 35.6 °F - 35.6 °F 100% 30.42 in 3.0 mi Calm Calm - N/A   Scattered Clouds
10:15 AM 35.6 °F - 35.6 °F 100% 30.42 in 3.0 mi Calm Calm - N/A   Mostly Cloudy
10:35 AM 37.4 °F - 37.4 °F 100% 30.42 in 2.0 mi Calm Calm - N/A   Overcast
10:55 AM 37.4 °F - 37.4 °F 100% 30.42 in 1.5 mi Calm Calm - N/A   Overcast
11:15 AM 39.2 °F - 39.2 °F 100% 30.41 in 3.0 mi Calm Calm - N/A   Mostly Cloudy
11:55 AM 41.0 °F - 41.0 °F 100% 30.40 in 5.0 mi Calm Calm - N/A   Partly Cloudy
12:15 PM 42.8 °F - 42.8 °F 100% 30.39 in 8.0 mi Calm Calm - N/A   Clear
12:35 PM 44.6 °F - 42.8 °F 93% 30.38 in 7.0 mi Calm Calm - N/A   Clear
12:55 PM 48.2 °F - 41.0 °F 76% 30.38 in 8.0 mi Calm Calm - N/A   Clear
1:15 PM 50.0 °F - 39.2 °F 66% 30.38 in 9.0 mi Calm Calm - N/A   Clear
1:35 PM 51.8 °F - 39.2 °F 62% 30.38 in 9.0 mi Calm Calm - N/A   Clear
1:55 PM 53.6 °F - 39.2 °F 58% 30.38 in 10.0 mi Calm Calm - N/A   Clear
2:15 PM 55.4 °F - 37.4 °F 51% 30.37 in 9.0 mi ENE 5.8 mph - N/A   Clear
2:35 PM 55.4 °F - 37.4 °F 51% 30.38 in 10.0 mi ENE 8.1 mph - N/A   Clear
2:55 PM 55.4 °F - 37.4 °F 51% 30.38 in 10.0 mi ENE 4.6 mph - N/A   Clear
3:15 PM 55.4 °F - 37.4 °F 51% 30.39 in 9.0 mi East 3.5 mph - N/A   Clear
3:35 PM 55.4 °F - 39.2 °F 54% 30.39 in 10.0 mi Calm Calm - N/A   Clear
3:55 PM 55.4 °F - 37.4 °F 51% 30.39 in 10.0 mi ENE 5.8 mph - N/A   Clear
4:15 PM 55.4 °F - 35.6 °F 47% 30.38 in 10.0 mi NE 3.5 mph - N/A   Clear
4:35 PM 53.6 °F - 35.6 °F 51% 30.39 in 10.0 mi Calm Calm - N/A   Clear
5:15 PM 50.0 °F - 33.8 °F 54% 30.39 in 10.0 mi East 3.5 mph - N/A   Clear
5:35 PM 46.4 °F - 33.8 °F 62% 30.39 in 10.0 mi Calm Calm - N/A   Clear
5:55 PM 44.6 °F 43.1 °F 32.0 °F 61% 30.40 in 10.0 mi East 3.5 mph - N/A   Clear
6:15 PM 44.6 °F - 32.0 °F 61% 30.40 in 10.0 mi Calm Calm - N/A   Clear
6:35 PM 44.6 °F 43.1 °F 32.0 °F 61% 30.39 in 10.0 mi ENE 3.5 mph - N/A   Clear
6:55 PM 44.6 °F 40.7 °F 32.0 °F 61% 30.39 in 10.0 mi NE 6.9 mph - N/A   Clear
7:15 PM 44.6 °F 40.7 °F 32.0 °F 61% 30.38 in 10.0 mi ENE 6.9 mph - N/A   Clear
7:35 PM 42.8 °F 40.1 °F 32.0 °F 66% 30.39 in 10.0 mi East 4.6 mph - N/A   Clear
7:55 PM 42.8 °F 39.3 °F 32.0 °F 66% 30.39 in 10.0 mi ENE 5.8 mph - N/A   Clear
8:35 PM 42.8 °F 40.1 °F 32.0 °F 66% 30.39 in 10.0 mi East 4.6 mph - N/A   Clear
8:55 PM 42.8 °F 40.1 °F 32.0 °F 66% 30.40 in 10.0 mi ENE 4.6 mph - N/A   Clear
9:15 PM 42.8 °F 38.0 °F 32.0 °F 66% 30.40 in 10.0 mi East 8.1 mph - N/A   Clear
9:35 PM 42.8 °F 38.0 °F 32.0 °F 66% 30.38 in 10.0 mi ENE 8.1 mph - N/A   Clear
9:55 PM 42.8 °F 38.0 °F 32.0 °F 66% 30.37 in 10.0 mi East 8.1 mph - N/A   Clear
10:15 PM 42.8 °F 38.6 °F 30.2 °F 61% 30.37 in 10.0 mi East 6.9 mph - N/A   Clear
10:35 PM 42.8 °F 38.0 °F 30.2 °F 61% 30.37 in 10.0 mi ENE 8.1 mph - N/A   Clear
10:55 PM 41.0 °F 36.4 °F 30.2 °F 65% 30.36 in 10.0 mi ENE 6.9 mph - N/A   Clear
11:15 PM 39.2 °F 35.9 °F 30.2 °F 70% 30.36 in 10.0 mi East 4.6 mph - N/A   Clear
11:35 PM 41.0 °F 36.4 °F 30.2 °F 65% 30.35 in 10.0 mi ENE 6.9 mph - N/A   Clear
11:55 PM 42.8 °F 38.6 °F 32.0 °F 66% 30.35 in 10.0 mi ENE 6.9 mph - N/A   Clear